Total_Precipitation_Accumulation
0.28 0.33 0.43 0.56 0.50 0.35 0.16 0.05 0.01 0.02 0.04 0.04 0.05 0.05 0.06 0.09 0.13 0.18 0.15 0.17 0.16 0.19 0.27 0.46 0.63 0.63 0.58 0.52 0.45 0.40 0.40 0.43 0.48 0.50 0.50 0.48 0.47 0.48 0.54 0.56 0.54 0.54 0.57 0.65 0.74 0.73 0.69 0.60 0.41
0.33 0.48 0.68 0.77 0.53 0.32 0.16 0.05 0.02 0.02 0.04 0.04 0.05 0.06 0.09 0.13 0.15 0.15 0.17 0.23 0.27 0.26 0.32 0.46 0.64 0.68 0.65 0.58 0.48 0.46 0.48 0.49 0.57 0.60 0.60 0.62 0.60 0.60 0.57 0.59 0.57 0.53 0.52 0.57 0.59 0.49 0.44 0.39 0.28
0.53 0.74 0.93 0.85 0.58 0.31 0.16 0.06 0.03 0.03 0.04 0.05 0.06 0.10 0.17 0.19 0.19 0.21 0.22 0.29 0.37 0.40 0.41 0.57 0.74 0.81 0.78 0.68 0.59 0.54 0.55 0.57 0.61 0.67 0.73 0.76 0.77 0.71 0.63 0.58 0.55 0.50 0.44 0.39 0.36 0.33 0.28 0.26 0.22
0.85 1.10 1.13 0.90 0.52 0.24 0.12 0.10 0.06 0.06 0.05 0.05 0.08 0.14 0.21 0.21 0.24 0.27 0.31 0.38 0.41 0.52 0.58 0.74 0.92 1.00 0.99 0.84 0.73 0.69 0.66 0.66 0.67 0.70 0.76 0.83 0.90 0.86 0.74 0.60 0.46 0.40 0.36 0.32 0.27 0.25 0.24 0.21 0.18
1.16 1.29 1.17 0.84 0.40 0.19 0.10 0.10 0.09 0.08 0.08 0.09 0.11 0.16 0.27 0.26 0.32 0.45 0.46 0.48 0.48 0.54 0.67 0.86 1.10 1.17 1.17 1.05 0.95 0.91 0.87 0.83 0.79 0.77 0.81 0.87 0.87 0.81 0.73 0.54 0.40 0.34 0.34 0.32 0.28 0.24 0.25 0.23 0.19
1.36 1.41 1.12 0.68 0.32 0.16 0.10 0.10 0.13 0.13 0.12 0.15 0.19 0.26 0.37 0.42 0.51 0.61 0.65 0.63 0.57 0.58 0.75 0.97 1.25 1.28 1.26 1.20 1.09 1.06 1.06 1.03 0.98 0.93 0.92 0.93 0.89 0.80 0.68 0.55 0.46 0.38 0.35 0.35 0.32 0.28 0.26 0.26 0.23
1.31 1.27 0.91 0.50 0.29 0.19 0.13 0.13 0.17 0.18 0.17 0.19 0.23 0.33 0.50 0.65 0.79 0.82 0.88 0.90 0.86 0.84 0.95 1.11 1.33 1.42 1.44 1.34 1.20 1.12 1.13 1.15 1.12 1.04 0.96 0.88 0.82 0.77 0.67 0.56 0.50 0.45 0.40 0.38 0.34 0.32 0.28 0.28 0.27
1.28 1.44 0.86 0.50 0.32 0.24 0.16 0.15 0.18 0.23 0.24 0.21 0.28 0.39 0.54 0.75 1.01 1.14 1.23 1.30 1.25 1.20 1.26 1.35 1.42 1.44 1.44 1.38 1.27 1.20 1.16 1.18 1.23 1.16 0.96 0.82 0.74 0.73 0.68 0.54 0.50 0.46 0.43 0.40 0.35 0.33 0.30 0.29 0.26
1.23 1.58 0.96 0.48 0.40 0.29 0.24 0.22 0.23 0.27 0.34 0.30 0.31 0.40 0.57 0.83 1.22 1.45 1.69 1.72 1.67 1.63 1.55 1.59 1.61 1.59 1.58 1.52 1.37 1.34 1.25 1.20 1.21 1.17 0.98 0.85 0.82 0.74 0.66 0.51 0.42 0.42 0.41 0.39 0.39 0.36 0.31 0.26 0.21
1.23 1.32 0.86 0.51 0.45 0.41 0.39 0.36 0.37 0.42 0.48 0.45 0.42 0.57 0.81 1.19 1.58 1.75 1.73 1.77 1.77 1.89 1.79 1.70 1.67 1.63 1.66 1.63 1.54 1.54 1.38 1.23 1.17 1.03 0.99 0.93 0.84 0.74 0.61 0.55 0.47 0.43 0.40 0.40 0.43 0.41 0.36 0.27 0.19
0.89 0.79 0.66 0.59 0.51 0.52 0.52 0.49 0.45 0.52 0.52 0.49 0.43 0.59 0.93 1.42 1.82 2.09 2.15 1.95 1.93 2.02 2.02 1.94 1.86 1.77 1.68 1.73 1.62 1.56 1.49 1.33 1.23 1.08 1.04 1.01 0.97 0.86 0.77 0.69 0.66 0.59 0.48 0.47 0.44 0.46 0.35 0.24 0.18
0.68 0.54 0.61 0.69 0.61 0.58 0.59 0.59 0.53 0.56 0.55 0.52 0.52 0.62 0.93 1.36 1.81 2.10 2.39 2.27 2.27 2.24 2.18 2.17 2.09 2.03 1.85 1.76 1.71 1.66 1.55 1.41 1.26 1.11 1.06 1.05 0.96 0.86 0.77 0.65 0.63 0.64 0.50 0.47 0.45 0.39 0.32 0.27 0.21
0.58 0.56 0.59 0.69 0.68 0.60 0.60 0.61 0.61 0.60 0.61 0.64 0.70 0.84 1.02 1.36 1.85 2.20 2.60 2.69 2.61 2.51 2.47 2.40 2.23 2.17 2.08 1.88 1.73 1.71 1.70 1.58 1.42 1.32 1.18 1.07 0.95 0.78 0.72 0.66 0.64 0.62 0.54 0.46 0.45 0.38 0.35 0.33 0.28
0.49 0.58 0.64 0.71 0.74 0.64 0.64 0.59 0.62 0.63 0.69 0.78 0.79 0.88 1.06 1.40 1.79 2.20 2.61 2.82 2.64 2.69 2.77 2.70 2.51 2.29 2.21 2.01 1.75 1.68 1.76 1.74 1.71 1.54 1.30 1.26 1.14 0.96 0.81 0.74 0.70 0.64 0.59 0.53 0.49 0.42 0.41 0.39 0.36
0.56 0.69 0.75 0.74 0.73 0.70 0.71 0.74 0.63 0.61 0.76 0.84 0.83 0.91 1.02 1.29 1.71 2.07 2.35 2.57 2.61 2.62 2.84 2.90 2.77 2.61 2.38 2.23 2.01 1.77 1.83 1.86 1.82 1.70 1.52 1.44 1.38 1.24 1.06 0.91 0.78 0.67 0.63 0.62 0.63 0.61 0.56 0.49 0.43
0.88 0.97 0.90 0.68 0.70 0.70 0.82 0.84 0.61 0.60 0.72 0.82 0.85 0.91 1.00 1.13 1.55 1.97 2.19 2.42 2.64 2.63 2.70 2.92 2.92 2.86 2.71 2.51 2.28 1.96 1.84 1.87 1.82 1.70 1.61 1.53 1.47 1.39 1.29 1.11 0.94 0.84 0.80 0.77 0.74 0.72 0.67 0.58 0.49
1.24 1.04 0.71 0.62 0.65 0.71 0.76 0.79 0.62 0.57 0.68 0.76 0.84 0.88 0.94 1.02 1.29 1.76 2.08 2.24 2.54 2.60 2.65 2.81 2.91 2.94 3.01 2.93 2.75 2.38 2.05 1.99 1.94 1.81 1.62 1.55 1.52 1.45 1.38 1.25 1.12 1.08 1.00 0.88 0.81 0.76 0.70 0.67 0.61
0.89 0.68 0.54 0.59 0.61 0.62 0.65 0.70 0.67 0.65 0.70 0.72 0.82 0.90 0.93 0.97 1.08 1.42 1.90 2.09 2.55 2.79 2.86 2.86 2.97 3.16 3.32 3.42 3.25 2.97 2.51 2.20 2.05 1.91 1.74 1.62 1.56 1.52 1.46 1.39 1.29 1.20 1.19 1.10 0.98 0.87 0.81 0.76 0.71
0.67 0.59 0.51 0.50 0.51 0.60 0.62 0.67 0.73 0.71 0.68 0.73 0.83 0.89 0.92 0.94 1.03 1.31 1.73 2.00 2.41 2.84 2.99 3.03 2.96 3.13 3.43 3.38 3.16 2.89 2.59 2.36 2.14 2.00 1.88 1.76 1.66 1.58 1.51 1.40 1.41 1.38 1.29 1.23 1.17 1.12 1.05 0.97 0.93
0.83 0.75 0.59 0.55 0.52 0.64 0.64 0.67 0.65 0.66 0.64 0.65 0.73 0.80 0.83 0.81 0.93 1.21 1.50 1.81 2.04 2.61 2.93 2.96 3.04 3.16 3.35 3.29 3.18 3.10 2.95 2.72 2.47 2.29 2.01 1.83 1.72 1.63 1.59 1.49 1.38 1.41 1.43 1.34 1.29 1.28 1.28 1.22 1.19
0.90 0.78 0.61 0.63 0.70 0.68 0.66 0.72 0.61 0.57 0.56 0.56 0.68 0.74 0.74 0.75 0.89 1.08 1.27 1.54 1.69 2.07 2.52 2.72 2.76 2.96 3.13 3.33 3.62 3.61 3.44 3.05 2.58 2.27 2.11 1.95 1.92 1.83 1.69 1.68 1.61 1.47 1.47 1.42 1.32 1.23 1.23 1.25 1.27
0.91 0.61 0.61 0.66 0.84 0.88 0.70 0.90 0.64 0.55 0.54 0.54 0.64 0.71 0.72 0.73 0.82 0.99 1.13 1.24 1.44 1.68 2.07 2.44 2.64 2.76 2.81 2.94 3.25 3.40 3.26 2.88 2.49 2.23 2.19 2.20 2.13 2.10 2.02 1.89 1.83 1.71 1.60 1.53 1.49 1.44 1.36 1.33 1.32
0.82 0.56 0.67 0.77 0.91 0.93 0.65 0.79 0.68 0.55 0.59 0.58 0.64 0.71 0.74 0.77 0.87 0.97 1.04 1.05 1.17 1.41 1.78 2.13 2.40 2.61 2.63 2.58 2.74 3.01 3.16 3.05 2.86 2.60 2.42 2.32 2.25 2.14 2.10 2.04 1.98 1.86 1.75 1.70 1.69 1.62 1.57 1.53 1.46
0.86 0.90 1.04 1.16 1.48 1.49 0.64 0.62 0.64 0.64 0.71 0.64 0.62 0.71 0.78 0.86 0.93 0.96 1.00 1.00 1.05 1.20 1.46 1.76 2.04 2.36 2.53 2.48 2.56 2.67 2.75 2.90 2.86 2.60 2.52 2.41 2.39 2.28 2.13 2.03 2.00 1.96 1.90 1.84 1.82 1.82 1.74 1.64 1.57
1.34 1.83 2.35 2.34 2.12 1.24 0.39 0.45 0.68 0.61 0.64 0.63 0.64 0.70 0.75 0.78 0.83 0.84 0.84 0.88 0.99 1.11 1.25 1.47 1.60 1.88 2.17 2.30 2.35 2.40 2.48 2.57 2.68 2.62 2.52 2.47 2.34 2.24 2.18 2.07 2.03 2.03 1.93 1.89 1.88 1.83 1.77 1.72 1.65
1.37 1.63 1.83 1.61 1.07 0.58 0.33 0.53 0.66 0.55 0.54 0.54 0.57 0.63 0.74 0.81 0.84 0.85 0.83 0.87 1.00 1.07 1.15 1.29 1.41 1.54 1.80 2.01 2.04 2.08 2.23 2.31 2.31 2.39 2.35 2.31 2.24 2.17 2.19 2.18 2.06 2.03 1.99 1.89 1.84 1.79 1.69 1.67 1.66
1.32 1.24 1.00 1.27 0.92 0.66 0.51 0.48 0.50 0.43 0.46 0.49 0.49 0.54 0.68 0.77 0.80 0.85 0.88 0.91 0.97 1.01 1.08 1.18 1.27 1.31 1.44 1.69 1.81 1.88 1.93 1.95 1.90 1.92 1.94 1.97 2.01 2.02 2.04 2.07 1.97 1.89 1.87 1.83 1.79 1.74 1.64 1.58 1.54
1.17 1.04 1.14 1.56 1.33 0.95 0.56 0.46 0.62 0.55 0.52 0.51 0.51 0.54 0.63 0.72 0.79 0.85 0.89 0.86 0.86 0.91 0.99 1.09 1.13 1.13 1.18 1.32 1.46 1.62 1.69 1.68 1.70 1.69 1.64 1.63 1.62 1.67 1.74 1.79 1.79 1.73 1.69 1.67 1.65 1.59 1.56 1.54 1.45
1.00 1.16 1.26 1.26 1.05 1.06 0.75 0.63 0.63 0.59 0.57 0.57 0.62 0.62 0.66 0.70 0.81 0.88 0.93 0.89 0.86 0.90 0.96 1.03 1.02 1.02 1.06 1.13 1.19 1.28 1.40 1.47 1.51 1.49 1.38 1.38 1.36 1.34 1.39 1.39 1.42 1.46 1.47 1.48 1.47 1.44 1.43 1.44 1.39
0.79 0.89 1.07 1.39 1.08 0.83 0.80 0.65 0.49 0.51 0.53 0.56 0.65 0.66 0.64 0.66 0.72 0.80 0.89 0.88 0.89 0.93 0.97 1.02 0.99 0.99 1.00 1.04 1.05 1.08 1.17 1.31 1.35 1.38 1.30 1.21 1.23 1.18 1.19 1.19 1.17 1.17 1.18 1.22 1.24 1.22 1.23 1.27 1.26